Regional Weather Roundup
Issued by NWS

Home | Current Version | Previous Version | Graphics & Text | Print | Product List | Glossary On
Versions: 1 2 3 4 5 6 7 8 9 10 11 12 13 14 15 16 17 18 19 20 21 22 23 24 25 26 27 28 29 30 31 32 33 34 35 36 37 38 39 40 41 42 43 44 45 46 47 48 49 50
000
ASUS43 KMPX 211301
RWRMN
WEATHER ROUNDUP FOR MINNESOTA
NATIONAL WEATHER SERVICE TWIN CITIES/CHANHASSEN MN
800 AM CDT MON MAY 21 2018


NOTE: "FAIR" INDICATES FEW OR NO CLOUDS BELOW 12,000 FEET WITH NO
SIGNIFICANT WEATHER AND/OR OBSTRUCTIONS TO VISIBILITY. N/A MEANS
CURRENT SKY AND/OR WEATHER CONDITIONS ARE NOT AVAILABLE.

MNZ060>063-068>070-211400-
   Twin Cities Metro

CITY           SKY/WX    TMP DP  RH WIND       PRES   REMARKS
BLAINE         PTSUNNY   61  46  59 E7        30.10S
LAKEVILLE      PTSUNNY   57  50  77 E12       30.08F
SOUTH ST PAUL  PTSUNNY   60  46  58 E7        30.10S
LAKE ELMO      CLOUDY    59  46  63 E6        30.11F
$$
MNZ001>005-007-008-013>017-022>024-027-028-211400-
   Northwest Minnesota

CITY           SKY/WX    TMP DP  RH WIND       PRES   REMARKS
BEMIDJI        FAIR      48  45  87 CALM      30.13S
HALLOCK        FAIR      55  37  50 SE8       30.09S
ROSEAU         FAIR      48  43  81 CALM      30.11S
WARROAD        FAIR      55  43  62 S3        30.12S
CROOKSTON      FAIR      55  39  54 S5        30.10S
FOSSTON        FAIR      55  39  54 SE5       30.11F
DETROIT LAKES  FAIR      52  37  58 CALM      30.11S
MOORHEAD       FAIR      54  37  54 E3        30.09S
$$
MNZ006-009>011-018-025>026-211400-
   North Central Minnesota

CITY           SKY/WX    TMP DP  RH WIND       PRES   REMARKS
FLAG ISLAND    FAIR      54  43  66 SE5       30.11S
WASKISH        CLOUDY    52  39  62 CALM      30.13S
LONGVILLE      FAIR      46  45  93 CALM      30.13S
CRANE LAKE     FAIR      54  37  54 CALM      30.17S
COOK           FAIR      48  39  71 CALM      30.17S
WALKER         FAIR      45  44  95 CALM      30.12S
$$
MNZ012-019>021-037-211400-
   Northeast Minnesota

CITY           SKY/WX    TMP DP  RH WIND       PRES   REMARKS
ELY            FAIR      50  37  62 CALM      30.17S
EVELETH        FAIR      48  39  71 CALM      30.18S
DULUTH HARBOR  FAIR      48  41  76 NE3       30.17F
TWO HARBORS    FAIR      54  46  76 CALM      30.15S
SILVER BAY     FAIR      48  39  71 CALM      30.16S
G MARAIS ARPRT FAIR      57  34  41 CALM      30.19F
$$
MNZ029>031-032-039>041-046>048-054>057-064-211400-
   West Central Minnesota

CITY           SKY/WX    TMP DP  RH WIND       PRES   REMARKS
FERGUS FALLS   PTSUNNY   55  37  50 E5        30.05F
WHEATON        PTSUNNY   57  39  51 E3        30.08F
MORRIS         CLOUDY    57  43  58 E8        30.06F
ELBOW LAKE     CLOUDY    55  40  56 E6        30.08S
WADENA         FAIR      48  37  66 CALM      30.10S
GLENWOOD       DRIZZLE   52  45  76 E7        30.09F
APPLETON       CLOUDY    59  50  72 E8        30.06S
BENSON         CLOUDY    57  48  72 SE5       30.09S
ORTONVILLE     CLOUDY    55  48  76 SE7       30.06S
MADISON        DRIZZLE   61  59  94 SE8       30.06S
WILLMAR        CLOUDY    55  54  94 E5        30.10S
$$
MNZ033>034-036-042>043-049>051-058-059-211400-
   Central Minnesota

CITY           SKY/WX    TMP DP  RH WIND       PRES   REMARKS
SAUK CENTRE    LGT RAIN  53  41  64 E5        30.10S
PAYNESVILLE    DRIZZLE   52  50  92 NE3       30.09S
AITKIN         FAIR      46  37  71 CALM      30.12S
PINE RIVER     FAIR      45  37  76 CALM      30.15F
STAPLES        CLOUDY    52  37  58 CALM      30.11S
LONG PRAIRIE   CLOUDY    52  37  58 NE6       30.10S
LITTLE FALLS   PTSUNNY   54  39  58 E5        30.11S
LITCHFIELD     CLOUDY    55  55 100 E5        30.09S
BUFFALO        PTSUNNY   57  48  72 NE7       30.09F
MAPLE LAKE     DRIZZLE   55  51  86 CALM      30.10S
HUTCHINSON     LGT RAIN  56  55  96 E3        30.09S
$$
MNZ037-044-045-052-053-211400-
   East Central Minnesota

CITY           SKY/WX    TMP DP  RH WIND       PRES   REMARKS
PRINCETON      CLOUDY    55  45  67 NE3       30.11F
MORA           PTSUNNY   50  41  71 CALM      30.14F
CAMBRIDGE      CLOUDY    57  43  58 E3        30.12S
RUSH CITY      CLOUDY    51  44  76 NE3       30.13F
MOOSE LAKE     FAIR      45  36  70 CALM      30.14S
HINCKLEY       PTSUNNY   46  43  87 CALM      30.14F
CLOQUET        FAIR      52  32  46 CALM      30.15F
MCGREGOR       FAIR      48  37  66 CALM      30.15S
$$
MNZ071>073-080-081-089-090-097-098-211400-
   Southwest Minnesota

CITY           SKY/WX    TMP DP  RH WIND       PRES   REMARKS
MONTEVIDEO     CLOUDY    57  52  82 SE9       30.07S
GRANITE FALLS  CLOUDY    58  56  92 E6        30.08S FOG
CANBY          CLOUDY    57  56  96 SE6       30.06S FOG
OLIVIA         CLOUDY    55  54  94 E6        30.06S
PIPESTONE      LGT RAIN  55  54  94 CALM      30.05S
WINDOM         LGT RAIN  55  41  58 CALM      30.05S
WORTHINGTON    CLOUDY    54  54 100 E6        30.06S FOG
JACKSON        CLOUDY    54  54 100 SE7       30.07R FOG
TRACY          DRIZZLE   56  56 100 E3        30.06R
SLAYTON        CLOUDY    54  54  99 SE7       30.06S
$$
MNZ065>067-074>077-082>085-091>093-211400-
   South Central Minnesota

CITY           SKY/WX    TMP DP  RH WIND       PRES   REMARKS
MANKATO        CLOUDY    57  54  88 SE12      30.07F
NEW ULM        CLOUDY    55  54  94 E6        30.07R
ST JAMES       CLOUDY    55  54  94 E6        30.07S FOG
GLENCOE        RAIN      58  58 100 E6        30.07F
FARIBAULT      CLOUDY    59  52  77 CALM      30.08F
OWATONNA       PTSUNNY   57  52  82 SE8       30.08R
WASECA         CLOUDY    55  52  88 SE8       30.09S
ALBERT LEA     CLOUDY    57  52  82 SE8       30.07S
$$
MNZ078>079-086>088-094>096-211400-
   Southeast Minnesota

CITY           SKY/WX    TMP DP  RH WIND       PRES   REMARKS
RED WING       FAIR      59  43  55 E6        30.09S
STANTON        CLOUDY    59  51  74 SE5       30.08S
DODGE CENTER   CLOUDY    55  48  76 E13       30.08F
WINONA         DRIZZLE   55  45  67 SE5       30.09S
AUSTIN         CLOUDY    55  50  82 SE10      30.07S
PRESTON        CLOUDY    53  49  87 E5        30.10S
$$
ABBREVIATIONS USED IN REMARKS
   TC - TEMPERATURES IN CELSIUS
  WCI - WIND CHILL INDEX
   HX - HEAT INDEX
  VSB - VISIBILITY
$$




USA.gov is the U.S. government's official web portal to all federal, state and local government web resources and services.